Terminal Aerodrome Forecast
Issued by NWS North Platte, NE

Home | Current Version | Previous Version | Text Only | Print | Product List | Glossary Off
Versions: 1 2 3 4 5 6 7 8 9 10 11 12 13 14 15 16 17 18 19

000
FTUS43 KLBF 251700
TAFVTN
TAF
KVTN 251737Z 2518/2618 23011KT P6SM BKN070 OVC150
     FM252100 25011KT P6SM VCSH OVC040
      TEMPO 2522/2602 5SM -SHSN OVC025
     FM260200 33017G27KT P6SM VCSH SCT015 OVC025
     FM260600 33022G31KT P6SM OVC025
     FM261300 33014G25KT P6SM BKN035
     FM261700 33011KT P6SM BKN050=

USA.gov is the U.S. government's official web portal to all federal, state and local government web resources and services.